Estación de San Julian
Ultimos registro cada 15 minutos 89
| N° | Estación | Fecha / Hora | Temperatura | Humedad | Lluvia | Velocidad | Dirección | Radiación | Presion |
| 89 | San Julian | 02-09-2026 22:00 | 12,6 | 92,1 | 0 | 0 | 258 | 0,6 | 988,4 |
| 88 | San Julian | 02-09-2026 21:45 | 12,8 | 92 | 0 | 0 | 258 | 0,6 | 988,4 |
| 87 | San Julian | 02-09-2026 21:30 | 12,8 | 91,3 | 0 | 0 | 258 | 0,6 | 988,5 |
| 86 | San Julian | 02-09-2026 21:15 | 13,3 | 90,9 | 0 | 0 | 246 | 0,6 | 988,3 |
| 85 | San Julian | 02-09-2026 21:00 | 13 | 90,8 | 0 | 0 | 223 | 0,6 | 988,4 |
| 84 | San Julian | 02-09-2026 20:45 | 13,2 | 89,2 | 0 | 0 | 223 | 0,6 | 988,5 |
| 83 | San Julian | 02-09-2026 20:30 | 13,4 | 88,9 | 0 | 0 | 223 | 0,6 | 988,2 |
| 82 | San Julian | 02-09-2026 20:15 | 13,8 | 87,2 | 0 | 0 | 223 | 0,6 | 988,1 |
| 81 | San Julian | 02-09-2026 20:00 | 13,9 | 87,2 | 0 | 0 | 226 | 0,6 | 987,9 |
| 80 | San Julian | 02-09-2026 19:45 | 14,3 | 86,4 | 0 | 0 | 225 | 0,6 | 987,7 |
| 79 | San Julian | 02-09-2026 19:30 | 14,7 | 85,2 | 0 | 0,5 | 236 | 0,6 | 987,5 |
| 78 | San Julian | 02-09-2026 19:15 | 14,9 | 85,1 | 0 | 1 | 227 | 0,6 | 987,5 |
| 77 | San Julian | 02-09-2026 19:00 | 15,5 | 83,8 | 0 | 1 | 240 | 0,6 | 987,4 |
| 76 | San Julian | 02-09-2026 18:45 | 16,1 | 81,8 | 0 | 1 | 241 | 0,6 | 987,1 |
| 75 | San Julian | 02-09-2026 18:30 | 16,9 | 78,9 | 0 | 1 | 241 | 4,4 | 986,9 |
| 74 | San Julian | 02-09-2026 18:15 | 17,9 | 76,6 | 0 | 1 | 236 | 21,9 | 986,9 |
| 73 | San Julian | 02-09-2026 18:00 | 18,3 | 75,5 | 0 | 1 | 243 | 36,9 | 986,7 |
| 72 | San Julian | 02-09-2026 17:45 | 19 | 73,5 | 0 | 1 | 241 | 73,1 | 986,4 |
| 71 | San Julian | 02-09-2026 17:30 | 19,2 | 73,3 | 0 | 1 | 237 | 81,9 | 986,2 |
| 70 | San Julian | 02-09-2026 17:15 | 19,9 | 72,1 | 0 | 1 | 241 | 90,6 | 986,3 |
| 69 | San Julian | 02-09-2026 17:00 | 20,4 | 70,8 | 0 | 1 | 243 | 105,6 | 986,2 |
| 68 | San Julian | 02-09-2026 16:45 | 21 | 69,6 | 0 | 1 | 240 | 141,9 | 986,2 |
| 67 | San Julian | 02-09-2026 16:30 | 21,4 | 67,9 | 0 | 1,5 | 236 | 186,9 | 986 |
| 66 | San Julian | 02-09-2026 16:15 | 21,7 | 66,2 | 0 | 1 | 232 | 196,9 | 985,8 |
| 65 | San Julian | 02-09-2026 16:00 | 22,6 | 55,9 | 0 | 0,5 | 232 | 233,1 | 985,8 |
| 64 | San Julian | 02-09-2026 15:45 | 22,4 | 53,4 | 0 | 0,5 | 230 | 216,9 | 985,7 |
| 63 | San Julian | 02-09-2026 15:30 | 22,3 | 56,1 | 0 | 0,5 | 227 | 193,1 | 985,6 |
| 62 | San Julian | 02-09-2026 15:15 | 22,3 | 57,3 | 0 | 0,5 | 227 | 231,9 | 985,8 |
| 61 | San Julian | 02-09-2026 15:00 | 22,4 | 56,1 | 0 | 0,5 | 227 | 246,9 | 985,8 |
| 60 | San Julian | 02-09-2026 14:45 | 22,7 | 55,7 | 0 | 0 | 227 | 246,9 | 985,9 |
| 59 | San Julian | 02-09-2026 14:30 | 22,6 | 57,2 | 0 | 0,5 | 229 | 341,9 | 986,1 |
| 58 | San Julian | 02-09-2026 14:15 | 22,7 | 56,8 | 0 | 0 | 233 | 344,4 | 985,9 |
| 57 | San Julian | 02-09-2026 14:00 | 22,4 | 57,3 | 0 | 0,5 | 234 | 345,6 | 986 |
| 56 | San Julian | 02-09-2026 13:45 | 22,8 | 57,3 | 0 | 0 | 236 | 354,4 | 986 |
| 55 | San Julian | 02-09-2026 13:30 | 22,9 | 54,9 | 0 | 0 | 234 | 346,9 | 986 |
| 54 | San Julian | 02-09-2026 13:15 | 23,4 | 54,3 | 0 | 0 | 234 | 516,9 | 986,3 |
| 53 | San Julian | 02-09-2026 13:00 | 22,4 | 58,8 | 0 | 0 | 232 | 315,6 | 986,3 |
| 52 | San Julian | 02-09-2026 12:45 | 22,4 | 57,5 | 0 | 0,5 | 229 | 509,4 | 986,5 |
| 51 | San Julian | 02-09-2026 12:30 | 22,2 | 57,9 | 0 | 1 | 194 | 515,6 | 986,6 |
| 50 | San Julian | 02-09-2026 12:15 | 21,7 | 62,7 | 0 | 0,5 | 128 | 671,9 | 986,7 |
| 49 | San Julian | 02-09-2026 12:00 | 21,4 | 64,3 | 0 | 0 | 115 | 394,4 | 986,6 |
| 48 | San Julian | 02-09-2026 11:45 | 21,2 | 63,5 | 0 | 0 | 105 | 410,6 | 986,5 |
| 47 | San Julian | 02-09-2026 11:30 | 22 | 63,1 | 0 | 0 | 53 | 379,4 | 986,4 |
| 46 | San Julian | 02-09-2026 11:15 | 21,6 | 65,1 | 0 | 0 | 53 | 410,6 | 986,3 |
| 45 | San Julian | 02-09-2026 11:00 | 21 | 64,4 | 0 | 0 | 53 | 411,9 | 986,2 |
| 44 | San Julian | 02-09-2026 10:45 | 20,6 | 62,8 | 0 | 0 | 53 | 404,4 | 986,2 |
| 43 | San Julian | 02-09-2026 10:30 | 20 | 63,3 | 0 | 0 | 53 | 363,1 | 986,2 |
| 42 | San Julian | 02-09-2026 10:15 | 20,1 | 61 | 0 | 0,5 | 56 | 339,4 | 986,2 |
| 41 | San Julian | 02-09-2026 10:00 | 19,8 | 62,7 | 0 | 0,5 | 72 | 759,4 | 986,1 |
| 40 | San Julian | 02-09-2026 09:45 | 17,4 | 69,1 | 0 | 0,5 | 66 | 223,1 | 986,4 |
| 39 | San Julian | 02-09-2026 09:30 | 18 | 72,6 | 0 | 0,5 | 105 | 431,9 | 986,2 |
| 38 | San Julian | 02-09-2026 09:15 | 15,7 | 79,3 | 0 | 0 | 110 | 456,9 | 986,2 |
| 37 | San Julian | 02-09-2026 09:00 | 15 | 80,4 | 0 | 0 | 111 | 181,9 | 986,1 |
| 36 | San Julian | 02-09-2026 08:45 | 14,5 | 83,9 | 0 | 0 | 115 | 403,1 | 985,6 |
| 35 | San Julian | 02-09-2026 08:30 | 13,5 | 86,8 | 0 | 0 | 115 | 313,1 | 986 |
| 34 | San Julian | 02-09-2026 08:15 | 12,2 | 89,1 | 0 | 0 | 115 | 66,9 | 985,9 |
| 33 | San Julian | 02-09-2026 08:00 | 11,3 | 90,5 | 0 | 0 | 55 | 78,1 | 985,9 |
| 32 | San Julian | 02-09-2026 07:45 | 11,2 | 90 | 0 | 0 | 49 | 36,9 | 985,6 |
| 31 | San Julian | 02-09-2026 07:30 | 11,5 | 88,3 | 0 | 0 | 55 | 24,4 | 985,6 |
| 30 | San Julian | 02-09-2026 07:15 | 10,9 | 89,2 | 0 | 0 | 66 | 10,6 | 985,7 |
| 29 | San Julian | 02-09-2026 07:00 | 11,8 | 84,9 | 0 | 0 | 70 | 0,6 | 985,5 |
| 28 | San Julian | 02-09-2026 06:45 | 12,9 | 83,2 | 0 | 0 | 83 | 0,6 | 985,2 |
| 27 | San Julian | 02-09-2026 06:30 | 12,6 | 82,7 | 0 | 0,5 | 97 | 0,6 | 984,9 |
| 26 | San Julian | 02-09-2026 06:15 | 12,7 | 82,9 | 0 | 1 | 80 | 0,6 | 984,8 |
| 25 | San Julian | 02-09-2026 06:00 | 13,5 | 81,7 | 0 | 1 | 58 | 0,6 | 984,8 |
| 24 | San Julian | 02-09-2026 05:45 | 13 | 84,3 | 0 | 0,5 | 65 | 0,6 | 984,6 |
| 23 | San Julian | 02-09-2026 05:30 | 12,3 | 88,4 | 0 | 0,5 | 79 | 0,6 | 984,9 |
| 22 | San Julian | 02-09-2026 05:15 | 11,7 | 89,2 | 0 | 0,5 | 102 | 0,6 | 984,8 |
| 21 | San Julian | 02-09-2026 05:00 | 11,4 | 89,1 | 0 | 0 | 117 | 0,6 | 985 |
| 20 | San Julian | 02-09-2026 04:45 | 12,1 | 86,6 | 0 | 0 | 126 | 0,6 | 985,3 |
| 19 | San Julian | 02-09-2026 04:30 | 12,3 | 86,8 | 0 | 0 | 175 | 0,6 | 985,2 |
| 18 | San Julian | 02-09-2026 04:15 | 12,2 | 87,2 | 0 | 0 | 175 | 0,6 | 985,3 |
| 17 | San Julian | 02-09-2026 04:00 | 12,2 | 86,7 | 0 | 0 | 173 | 0,6 | 985,2 |
| 16 | San Julian | 02-09-2026 03:45 | 12,4 | 86 | 0 | 0,5 | 161 | 0,6 | 985,5 |
| 15 | San Julian | 02-09-2026 03:30 | 12,5 | 85,7 | 0 | 0 | 128 | 0,6 | 985,4 |
| 14 | San Julian | 02-09-2026 03:15 | 11,6 | 89 | 0 | 0 | 114 | 0,6 | 985,4 |
| 13 | San Julian | 02-09-2026 03:00 | 11,7 | 88,2 | 0 | 0 | 114 | 0,6 | 985,4 |
| 12 | San Julian | 02-09-2026 02:45 | 11,5 | 88,8 | 0 | 0 | 111 | 0,6 | 985,4 |
| 11 | San Julian | 02-09-2026 02:30 | 11,6 | 88 | 0 | 0 | 110 | 0,6 | 985,5 |
| 10 | San Julian | 02-09-2026 02:15 | 11,9 | 86 | 0 | 0 | 110 | 0,6 | 985,6 |
| 9 | San Julian | 02-09-2026 02:00 | 12,3 | 85,3 | 0 | 0 | 108 | 0,6 | 985,4 |
| 8 | San Julian | 02-09-2026 01:45 | 12,8 | 83,1 | 0 | 0 | 107 | 0,6 | 985,4 |
| 7 | San Julian | 02-09-2026 01:30 | 12,8 | 82,1 | 0 | 0 | 102 | 0,6 | 985,5 |
| 6 | San Julian | 02-09-2026 01:15 | 14,5 | 75,6 | 0 | 1 | 129 | 0,6 | 985,6 |
| 5 | San Julian | 02-09-2026 01:00 | 13,5 | 82 | 0 | 0,5 | 218 | 0,6 | 985,6 |
| 4 | San Julian | 02-09-2026 00:45 | 13,1 | 84,4 | 0 | 0 | 244 | 0,6 | 985,5 |
| 3 | San Julian | 02-09-2026 00:30 | 12,5 | 87,7 | 0 | 0 | 243 | 0,6 | 985,9 |
| 2 | San Julian | 02-09-2026 00:15 | 11,9 | 89,4 | 0 | 0 | 243 | 0,6 | 986,2 |
| 1 | San Julian | 02-09-2026 00:00 | 11,2 | 87,4 | 0 | 0 | 243 | 0,6 | 986,3 |